Flag for India Weather past 2 weeks in Firozpur, Punjab, India

Now
86 °F

Thunderstorms. Broken clouds.


Feels Like: 99 °F
Forecast: 78 / 96 °F
Wind: No wind

Location: Lahore Airport

Current Time: Aug 31, 2014 at 4:54:08 PM

Latest Report: Aug 31, 2014 at 4:25 PM


Visibility: 2 mi

Pressure: 29.56 "Hg

Humidity: 79%

Dew point: 79 °F

Location of FirozpurLocation

Historic Weather in Firozpur — Graph

°F

Firozpur temperature yesterday

Maximum temperature yesterday: 95 °F (at 12:59 PM)
Minimum temperature yesterday: 81 °F (at 3:55 AM)
Average temperature yesterday: 88 °F

Past Weeks' High & Low Weather Summary

 TemperatureHumidityPressure
High104 °F (Aug 22, 3:25 PM)89% (Aug 19, 5:25 AM)29.80 "Hg (Aug 19, 5:25 AM)
Low77 °F (Aug 17, 5:00 AM)19% (Aug 30, 10:25 PM)29.53 "Hg (Aug 27, 4:55 PM)
Average90 °F56%29.66 "Hg
* Reported Aug 16 2:59 PM — Aug 31 3:25 PM, Firozpur, Weather by CustomWeather, © 2014

Note: Actual official high and low records may vary slightly from our data, if they occured in-between our weather recording intervals... More about our weather records

Advertising

Firozpur weather history for previous 24 hours

 ConditionsComfort  
Time TempWeatherWind HumidityBarometerVisibility
3:25 PM
Aug 31
86 °FThunderstorms. Broken clouds.9 mph84%29.56 "Hg2 mi
2:55 PM88 °FThunderstorms. Broken clouds.5 mph75%29.56 "Hg2 mi
2:25 PM90 °FBroken clouds.9 mph67%29.59 "Hg2 mi
1:55 PM90 °FThunderstorms. Broken clouds.9 mph71%29.59 "Hg2 mi
1:25 PM91 °FThunderstorms. Broken clouds.7 mph63%29.59 "Hg2 mi
12:55 PM97 °FScattered clouds.No wind50%29.62 "Hg3 mi
12:25 PM97 °FScattered clouds.3 mph50%29.62 "Hg3 mi
11:55 AM95 °FScattered clouds.3 mph53%29.62 "Hg2 mi
11:25 AM93 °FScattered clouds.3 mph53%29.65 "Hg2 mi
10:55 AM91 °FScattered clouds.6 mph56%29.65 "Hg2 mi
10:25 AM91 °FPassing clouds.3 mph56%29.65 "Hg2 mi
9:55 AM91 °FPassing clouds.6 mph56%29.65 "Hg2 mi
9:25 AM90 °FClear.3 mph59%29.68 "Hg2 mi
8:55 AM90 °FClear.5 mph59%29.65 "Hg2 mi
8:25 AM88 °FWarm.N/A62%29.65 "HgN/A
8:00 AM84 °FClear.No wind66%29.65 "Hg2 mi
7:30 AM82 °FClear.No wind70%29.65 "Hg2 mi
7:00 AM81 °FClear.No wind79%29.65 "Hg2 mi
6:30 AM81 °FClear.No wind79%29.65 "Hg2 mi
5:30 AM82 °FClear.No wind70%29.65 "Hg2 mi
5:00 AM82 °FClear.No wind70%29.65 "Hg3 mi
4:30 AM82 °FClear.No wind70%29.65 "Hg3 mi
4:00 AM82 °FClear.No wind70%29.65 "Hg3 mi
3:30 AM82 °FClear.No wind70%29.65 "Hg3 mi
3:00 AM82 °FClear.No wind70%29.62 "Hg3 mi
2:25 AM84 °FClear.No wind66%29.62 "Hg3 mi
1:55 AM84 °FClear.3 mph66%29.62 "Hg3 mi
1:25 AM84 °FClear.3 mph66%29.62 "Hg3 mi
12:55 AM86 °FClear.3 mph59%29.62 "Hg3 mi
12:25 AM86 °FClear.3 mph59%29.62 "Hg3 mi
11:25 PM
Aug 30
86 °FClear.3 mph59%29.62 "Hg3 mi
10:55 PM86 °FClear.3 mph59%29.62 "Hg3 mi
10:25 PM86 °FClear.5 mph19%29.62 "Hg3 mi
10:00 PM86 °FClear.3 mph59%29.62 "Hg3 mi
9:25 PM88 °FClear.No wind55%29.62 "Hg3 mi
9:00 PM88 °FClear.3 mph55%29.62 "Hg3 mi
8:25 PM88 °FClear.No wind55%29.62 "Hg3 mi
7:55 PM90 °FClear.3 mph49%29.59 "Hg3 mi
7:25 PM90 °FSmoke.3 mph52%29.59 "Hg3 mi
6:55 PM90 °FHaze.7 mph49%29.59 "Hg3 mi
6:30 PM91 °FHaze.6 mph46%29.59 "Hg3 mi
6:00 PM93 °FScattered clouds.6 mph44%29.59 "Hg3 mi
5:30 PM93 °FScattered clouds.6 mph47%29.59 "Hg3 mi
5:00 PM93 °FScattered clouds.6 mph44%29.59 "Hg3 mi
4:29 PM93 °FScattered clouds.No wind44%29.59 "Hg3 mi
Weather by CustomWeather, © 2014

See weather overviewHow to use our weather pages